This is the latest recevied weather packets stored in our database for station/object KM8V-8. If no packets are shown the sender has not sent any weather packets the latest 10 day(s).
| Time | Temp. | Humidity | Pressure | Rain* | Wind** | Luminosity | Snow |
|---|---|---|---|---|---|---|---|
| 1777321231 | 22.78° C | 43% | 1014.4 hPa | 0 mm | - | 438 W/m² | - |
| 1777320931 | 22.78° C | 42% | 1014.4 hPa | 0 mm | - | 427 W/m² | - |
| 1777320630 | 22.78° C | 41% | 1014.3 hPa | 0 mm | - | 426 W/m² | - |
| 1777320330 | 22.78° C | 43% | 1014.3 hPa | 0 mm | - | 447 W/m² | - |
| 1777320030 | 22.78° C | 42% | 1014.3 hPa | 0 mm | - | 449 W/m² | - |
| 1777319732 | 22.78° C | 41% | 1014.4 hPa | 0 mm | - | 468 W/m² | - |
| 1777319431 | 22.78° C | 42% | 1014.5 hPa | 0 mm | - | 486 W/m² | - |
| 1777319131 | 22.78° C | 43% | 1014.5 hPa | 0 mm | - | 545 W/m² | - |
| 1777318822 | 22.78° C | 42% | 1014.6 hPa | 0 mm | - | 554 W/m² | - |
| 1777318516 | 22.78° C | 42% | 1014.7 hPa | 0 mm | - | 586 W/m² | - |
| 1777318232 | 22.78° C | 43% | 1014.8 hPa | 0 mm | - | 589 W/m² | - |
| 1777317922 | 22.78° C | 43% | 1015 hPa | 0 mm | - | 603 W/m² | - |
| 1777317616 | 22.78° C | 42% | 1015 hPa | 0 mm | - | 568 W/m² | - |
| 1777317316 | 22.78° C | 43% | 1015.1 hPa | 0 mm | - | 573 W/m² | - |
| 1777317032 | 22.78° C | 43% | 1015.1 hPa | 0 mm | - | 585 W/m² | - |
| 1777316722 | 22.78° C | 42% | 1015.2 hPa | 0 mm | - | 631 W/m² | - |
| 1777316423 | 22.78° C | 42% | 1015.3 hPa | 0 mm | - | 693 W/m² | - |
| 1777316123 | 22.78° C | 42% | 1015.5 hPa | 0 mm | - | 744 W/m² | - |
| 1777315818 | 23.33° C | 42% | 1015.6 hPa | 0 mm | - | 815 W/m² | - |
| 1777315532 | 23.33° C | 42% | 1015.7 hPa | 0 mm | - | 865 W/m² | - |
| 1777315232 | 22.78° C | 43% | 1015.9 hPa | 0 mm | - | 832 W/m² | - |
| 1777314932 | 22.78° C | 44% | 1016 hPa | 0 mm | - | 908 W/m² | - |
| 1777314617 | 22.78° C | 42% | 1016 hPa | 0 mm | - | 915 W/m² | - |
* Rain latest hour (hover to see other rain measurements)
** Current wind speed in m/s (hover to see current wind gust speed)